When you browse on this site, cookies collect data to enhance your experience and personalize the content and advertising you see.
Visit our Privacy Policy to learn more. By continuing to use the site, you agree to this use of cookies and data.

Hourly Weather Kerns

Today, 11 August, Tuesday

Time Temperature Precipitation Wind Pressure Humidity
00:00 +17°C° 0 mm 2 mps 761 mmHg 70%
01:00 +17°C° 0 mm 2 mps 761 mmHg 70%
02:00 +17°C° 0 mm 2 mps 761 mmHg 70%
03:00 +17°C° 0 mm 2 mps 761 mmHg 70%
04:00 +17°C° 0 mm 2 mps 761 mmHg 70%
05:00 +17°C° 0 mm 2 mps 761 mmHg 69%
06:00 +17°C° 0 mm 2 mps 761 mmHg 69%
07:00 +17°C° 0 mm 2 mps 762 mmHg 68%
08:00 +20°C° 0 mm 2 mps 762 mmHg 60%
09:00 +23°C° 0 mm 2 mps 762 mmHg 52%
10:00 +26°C° 0 mm 2 mps 762 mmHg 44%
11:00 +27°C° 0 mm 3 mps 761 mmHg 44%
12:00 +28°C° 0 mm 3 mps 761 mmHg 43%
13:00 +29°C° 0 mm 3 mps 760 mmHg 42%
14:00 +28°C° 0 mm 3 mps 760 mmHg 45%
15:00 +28°C° 0 mm 3 mps 759 mmHg 48%
16:00 +27°C° 0 mm 3 mps 759 mmHg 51%
17:00 +25°C° 0 mm 3 mps 759 mmHg 61%
18:00 +21°C° 0 mm 2 mps 760 mmHg 72%
19:00 +19°C° 0 mm 2 mps 760 mmHg 83%
20:00 +19°C° 0 mm 2 mps 761 mmHg 85%
21:00 +18°C° 0 mm 2 mps 762 mmHg 86%
22:00 +18°C° 0 mm 2 mps 762 mmHg 88%
23:00 +19°C° 0 mm 1 mps 762 mmHg 88%

Tomorrow, 12 August, Wednesday

Time Temperature Precipitation Wind Pressure Humidity
00:00 +19°C° 0 mm 1 mps 762 mmHg 89%
01:00 +18°C° 0 mm 1 mps 762 mmHg 90%
02:00 +18°C° 0 mm 1 mps 761 mmHg 91%
03:00 +18°C° 0 mm 1 mps 761 mmHg 92%
04:00 +18°C° 0 mm 1 mps 761 mmHg 92%
05:00 +18°C° 0 mm 1 mps 761 mmHg 93%
06:00 +17°C° 0 mm 2 mps 762 mmHg 93%
07:00 +17°C° 0 mm 2 mps 762 mmHg 93%
08:00 +21°C° 0 mm 2 mps 762 mmHg 81%
09:00 +25°C° 0 mm 1 mps 763 mmHg 69%
10:00 +28°C° 0 mm 1 mps 763 mmHg 56%
11:00 +29°C° 0 mm 2 mps 762 mmHg 54%
12:00 +30°C° 0 mm 2 mps 762 mmHg 51%
13:00 +31°C° 0 mm 2 mps 761 mmHg 48%
14:00 +30°C° 0 mm 2 mps 760 mmHg 52%
15:00 +29°C° 0 mm 2 mps 760 mmHg 56%
16:00 +28°C° 0 mm 2 mps 759 mmHg 61%
17:00 +26°C° 0 mm 2 mps 760 mmHg 72%
18:00 +24°C° 0 mm 2 mps 760 mmHg 83%
19:00 +21°C° 0 mm 1 mps 760 mmHg 95%
20:00 +21°C° 0 mm 1 mps 761 mmHg 95%
21:00 +20°C° 0 mm 1 mps 762 mmHg 96%
22:00 +20°C° 0 mm 1 mps 762 mmHg 97%
23:00 +20°C° 0 mm 1 mps 762 mmHg 97%

Day after tomorrow, 13 August, Thursday

Time Temperature Precipitation Wind Pressure Humidity
00:00 +20°C° 0 mm 1 mps 762 mmHg 96%
01:00 +20°C° 0 mm 1 mps 761 mmHg 96%
02:00 +19°C° 0 mm 1 mps 761 mmHg 96%
03:00 +18°C° 0 mm 2 mps 761 mmHg 97%
04:00 +18°C° 0 mm 2 mps 761 mmHg 97%
05:00 +18°C° 0 mm 2 mps 761 mmHg 97%
06:00 +18°C° 0 mm 2 mps 762 mmHg 97%
07:00 +18°C° 0 mm 2 mps 762 mmHg 97%
08:00 +21°C° 0 mm 2 mps 762 mmHg 86%
09:00 +24°C° 0 mm 2 mps 762 mmHg 76%
10:00 +26°C° 0 mm 2 mps 763 mmHg 65%
11:00 +28°C° 0 mm 3 mps 762 mmHg 60%
12:00 +29°C° 0 mm 3 mps 761 mmHg 54%
13:00 +31°C° 0 mm 3 mps 760 mmHg 48%
14:00 +30°C° 0 mm 3 mps 760 mmHg 51%
15:00 +29°C° 0 mm 3 mps 760 mmHg 55%
16:00 +28°C° 0 mm 3 mps 759 mmHg 58%
17:00 +26°C° 0 mm 3 mps 759 mmHg 70%
18:00 +24°C° 0 mm 3 mps 760 mmHg 82%
19:00 +20°C° 0 mm 3 mps 760 mmHg 94%
20:00 +20°C° 0 mm 3 mps 761 mmHg 95%
21:00 +19°C° 0 mm 3 mps 761 mmHg 96%
22:00 +19°C° 0 mm 3 mps 762 mmHg 97%
23:00 +19°C° 0 mm 2 mps 761 mmHg 97%

14 August, Friday

Time Temperature Precipitation Wind Pressure Humidity
00:00 +19°C° 0 mm 2 mps 761 mmHg 97%
01:00 +18°C° 0 mm 2 mps 761 mmHg 97%
02:00 +18°C° 0 mm 2 mps 761 mmHg 97%
03:00 +18°C° 0 mm 2 mps 760 mmHg 97%
04:00 +18°C° 0 mm 2 mps 760 mmHg 97%
05:00 +18°C° 0 mm 2 mps 760 mmHg 97%
06:00 +18°C° 0 mm 2 mps 761 mmHg 97%
07:00 +18°C° 0 mm 2 mps 761 mmHg 96%
08:00 +21°C° 0 mm 3 mps 761 mmHg 83%
09:00 +24°C° 0 mm 3 mps 761 mmHg 70%
10:00 +27°C° 0 mm 3 mps 762 mmHg 56%
11:00 +28°C° 0 mm 3 mps 761 mmHg 52%
12:00 +29°C° 0 mm 3 mps 760 mmHg 48%
13:00 +30°C° 0 mm 4 mps 760 mmHg 45%
14:00 +29°C° 0 mm 4 mps 759 mmHg 48%
15:00 +29°C° 0 mm 3 mps 759 mmHg 52%
16:00 +28°C° 0 mm 3 mps 758 mmHg 55%
17:00 +26°C° 0 mm 3 mps 759 mmHg 67%
18:00 +22°C° 0 mm 3 mps 759 mmHg 79%
19:00 +20°C° 0 mm 3 mps 760 mmHg 91%
20:00 +19°C° 0 mm 3 mps 760 mmHg 93%
21:00 +19°C° 0 mm 3 mps 761 mmHg 94%
22:00 +19°C° 0 mm 2 mps 761 mmHg 96%
23:00 +18°C° 0 mm 2 mps 761 mmHg 96%

15 August, Saturday

Time Temperature Precipitation Wind Pressure Humidity
00:00 +18°C° 0 mm 2 mps 761 mmHg 96%
01:00 +18°C° 0 mm 2 mps 760 mmHg 96%
02:00 +18°C° 0 mm 2 mps 760 mmHg 96%
03:00 +18°C° 0 mm 2 mps 760 mmHg 96%
04:00 +18°C° 0 mm 2 mps 760 mmHg 96%
05:00 +18°C° 0 mm 2 mps 760 mmHg 95%
06:00 +18°C° 0 mm 2 mps 760 mmHg 95%
07:00 +18°C° 0 mm 2 mps 761 mmHg 95%
08:00 +21°C° 0 mm 2 mps 761 mmHg 81%
09:00 +25°C° 0 mm 1 mps 761 mmHg 68%
10:00 +28°C° 0 mm 1 mps 761 mmHg 54%
11:00 +30°C° 0 mm 2 mps 760 mmHg 51%
12:00 +31°C° 0 mm 2 mps 759 mmHg 47%
13:00 +32°C° 0 mm 2 mps 759 mmHg 43%
14:00 +31°C° 0 mm 2 mps 758 mmHg 48%
15:00 +30°C° 0 mm 2 mps 758 mmHg 53%
16:00 +29°C° 0 mm 3 mps 758 mmHg 57%
17:00 +26°C° 0 mm 2 mps 758 mmHg 69%
18:00 +24°C° 0 mm 2 mps 759 mmHg 80%
19:00 +21°C° 0 mm 1 mps 759 mmHg 91%
20:00 +21°C° 0 mm 1 mps 759 mmHg 93%
21:00 +21°C° 0 mm 1 mps 760 mmHg 94%
22:00 +20°C° 0 mm 1 mps 760 mmHg 95%
23:00 +20°C° 0 mm 1 mps 760 mmHg 95%

16 August, Sunday

Time Temperature Precipitation Wind Pressure Humidity
00:00 +20°C° 0 mm 1 mps 760 mmHg 95%
01:00 +20°C° 0 mm 1 mps 760 mmHg 96%
02:00 +20°C° 0 mm 1 mps 760 mmHg 95%
03:00 +20°C° 0 mm 1 mps 759 mmHg 95%
04:00 +20°C° 0 mm 1 mps 759 mmHg 95%
05:00 +20°C° 0 mm 1 mps 760 mmHg 93%
06:00 +20°C° 0 mm 1 mps 760 mmHg 92%
07:00 +20°C° 0 mm 1 mps 761 mmHg 90%
08:00 +24°C° 0 mm 1 mps 761 mmHg 75%
09:00 +28°C° 0 mm 1 mps 761 mmHg 60%
10:00 +32°C° 0 mm 1 mps 761 mmHg 45%
11:00 +32°C° 0 mm 2 mps 760 mmHg 44%
12:00 +34°C° 0 mm 2 mps 759 mmHg 43%
13:00 +34°C° 0 mm 2 mps 759 mmHg 41%
14:00 +32°C° 0 mm 2 mps 758 mmHg 46%
15:00 +31°C° 0 mm 2 mps 758 mmHg 52%
16:00 +29°C° 0 mm 3 mps 757 mmHg 57%
17:00 +27°C° 0 mm 2 mps 758 mmHg 68%
18:00 +24°C° 0 mm 2 mps 758 mmHg 80%
19:00 +22°C° 0 mm 1 mps 759 mmHg 92%
20:00 +22°C° 0 mm 1 mps 759 mmHg 93%
21:00 +21°C° 0 mm 1 mps 759 mmHg 94%
22:00 +21°C° 0 mm 1 mps 760 mmHg 95%
23:00 +21°C° 0 mm 1 mps 760 mmHg 93%
Show more